Theta_e
333 325 329 326 328 324 317 318 303 309 308 302 303 304 303 309 309 307 307 313 310 328 327 329 324 322 321 323 325 335 336 329 331 322 321 336 351 352 352 353 353 352 352 351 352 352 352 350 349 349 350 351 350 351 352 352 354 353 353 353 354 354 354 354 354 354 353 353 353 353 353 352 352 352 352 352 352 351 351 351 350 350 351 350 350 350 350 349 349 349 350 349 348 348 347 347 346
323 325 327 325 324 317 312 312 305 304 305 302 304 306 306 308 308 309 311 313 314 326 333 333 332 333 334 331 333 333 335 337 337 336 342 348 350 351 353 354 351 350 352 352 351 351 351 351 349 349 350 350 350 350 351 352 353 353 353 354 353 354 354 354 353 353 353 354 353 353 353 353 352 352 352 352 352 351 350 350 351 351 351 350 351 350 349 349 349 349 349 349 348 348 347 346 346
321 323 318 321 321 316 313 313 302 303 300 298 303 306 309 306 309 315 318 323 329 332 333 334 334 332 331 331 326 328 327 341 340 341 341 348 344 348 353 353 351 352 352 352 352 352 352 351 350 350 349 349 350 349 351 352 353 353 352 353 354 353 354 354 354 354 354 353 353 353 353 352 353 353 352 352 351 350 350 350 351 351 350 350 349 350 349 348 349 349 348 348 348 347 346 345 345
325 326 319 315 313 314 309 308 305 302 300 301 302 306 307 308 315 319 324 327 330 332 331 331 329 334 334 325 331 335 336 336 341 341 339 343 345 351 353 353 352 352 353 351 351 350 352 351 350 349 349 349 349 350 351 352 353 352 353 353 353 353 353 353 354 354 353 353 353 353 353 352 352 352 351 351 350 349 348 348 349 350 349 349 349 349 348 348 348 347 347 347 347 346 345 344 344
320 320 320 316 310 308 308 306 304 304 299 303 301 307 307 313 317 319 323 326 329 331 330 331 330 336 338 335 336 330 333 341 340 343 341 346 352 353 353 351 350 350 350 350 351 350 350 349 349 350 349 349 349 351 351 351 352 353 353 353 353 353 353 353 353 353 353 352 352 352 352 351 351 351 350 350 349 349 348 348 347 347 347 347 346 346 346 346 346 347 346 345 344 344 344 345 345
318 319 319 315 309 315 308 303 302 302 305 307 304 306 311 317 312 308 316 325 328 331 333 330 328 328 330 335 338 335 338 331 341 342 345 345 351 353 352 352 350 349 350 352 351 351 351 350 350 350 349 349 349 350 351 352 352 352 353 353 353 353 353 353 353 353 353 353 352 352 352 351 351 351 350 350 349 348 348 347 347 347 346 346 345 345 345 345 344 345 344 343 344 345 345 346 346
315 315 313 312 310 310 302 302 302 303 306 308 306 307 308 313 309 308 308 313 328 331 333 331 332 332 329 335 337 341 345 344 342 342 347 350 352 352 353 351 349 349 350 350 351 350 349 350 350 350 349 349 349 351 351 352 352 352 352 353 352 353 353 353 353 353 352 352 352 351 350 350 350 350 350 349 348 346 345 344 344 345 344 344 344 343 344 345 345 344 343 343 344 345 347 346 347
319 314 311 305 305 305 301 302 302 305 305 307 308 307 308 311 309 308 307 307 319 324 331 333 332 328 330 340 331 341 344 346 346 350 350 351 352 352 351 351 349 349 349 352 352 352 352 350 350 349 349 350 349 351 351 351 352 352 352 352 352 352 353 353 353 352 352 351 350 350 349 349 349 349 349 349 347 345 345 344 344 343 342 342 342 342 342 342 343 344 343 343 344 346 347 348 348
314 311 313 306 302 305 301 301 303 307 306 308 307 308 315 310 310 308 307 309 310 321 329 331 332 326 328 333 332 340 344 348 350 351 351 352 351 352 350 350 348 349 350 350 353 352 350 351 350 350 349 350 350 350 350 351 351 351 352 352 352 353 353 353 352 352 351 350 349 349 349 348 348 348 347 347 346 346 346 346 346 345 344 344 343 343 342 342 343 344 343 343 345 346 348 348 347
311 310 305 304 304 300 301 302 301 304 305 307 306 307 308 308 308 308 307 307 309 321 329 334 333 327 333 330 333 338 342 348 350 350 352 352 352 352 352 351 349 348 349 350 351 349 350 351 350 350 350 350 350 350 350 350 351 352 352 352 352 352 352 352 351 351 350 350 349 348 348 347 347 346 346 346 346 346 345 345 344 343 343 342 342 342 342 342 343 342 342 343 345 347 347 347 347
306 309 311 303 300 298 298 300 303 305 305 306 306 307 308 309 308 307 308 308 311 318 331 332 328 331 332 332 335 344 347 348 348 346 350 352 352 351 350 350 350 350 349 351 352 351 350 350 352 350 350 350 350 350 350 351 352 352 352 352 352 352 352 351 351 351 350 349 349 349 348 347 347 347 346 346 346 345 345 345 345 342 341 342 342 342 342 342 342 342 342 342 344 346 347 347 347
304 306 305 298 298 299 301 301 302 304 305 305 304 307 310 310 311 308 307 306 309 318 327 331 328 334 330 331 332 341 346 347 348 349 350 351 349 350 349 349 350 350 352 352 350 351 350 350 350 351 350 350 350 351 351 351 351 351 351 351 352 352 352 351 350 350 350 350 349 348 348 347 346 345 345 345 345 345 345 345 344 344 344 343 342 342 342 343 342 342 341 342 344 345 347 347 347
305 307 303 300 299 301 302 301 301 302 303 304 304 308 311 311 311 310 308 309 310 314 323 331 333 331 326 330 338 341 342 347 348 350 350 349 348 348 349 348 350 352 352 351 350 350 351 350 350 350 349 350 350 350 350 350 350 350 350 351 351 351 351 351 350 350 350 349 348 348 347 347 346 346 345 345 345 344 344 344 344 344 345 344 342 342 342 342 342 341 341 342 344 345 346 346 346
305 308 305 299 304 302 301 301 302 300 301 306 309 309 309 309 313 315 312 308 310 314 326 335 333 333 334 334 335 337 341 346 347 349 349 348 348 348 348 348 351 352 351 350 349 350 349 350 350 350 349 350 351 351 349 349 348 349 349 349 350 350 350 350 350 349 349 349 349 348 348 347 346 346 345 345 344 344 344 345 344 345 344 344 343 342 342 342 341 341 341 342 345 345 346 346 346
306 310 305 302 301 301 302 299 300 300 301 307 307 307 308 320 323 321 314 309 312 321 338 339 335 329 325 329 331 336 341 345 347 348 347 348 347 347 348 348 349 351 351 350 350 350 348 350 349 350 351 350 349 350 350 349 348 348 348 348 349 349 350 349 349 349 349 349 348 348 348 347 347 346 345 345 345 344 344 344 344 344 344 343 342 342 341 341 341 341 341 342 344 345 346 346 345
309 308 304 300 299 300 301 300 302 300 301 307 307 308 308 324 328 321 317 313 327 338 336 330 339 329 333 328 335 340 343 345 346 347 347 346 346 346 347 347 348 349 350 350 349 349 350 349 350 349 349 349 350 350 349 349 348 347 347 348 347 348 349 349 349 348 349 348 348 348 348 349 348 349 346 346 345 344 344 345 344 345 344 344 344 342 341 341 340 341 341 341 343 344 345 345 344
312 308 301 300 298 299 301 301 302 298 304 306 308 308 306 308 329 325 329 326 331 331 331 335 333 338 334 339 342 343 344 345 345 345 344 343 343 343 345 345 346 346 347 348 348 349 351 349 349 348 348 347 348 348 348 347 348 347 348 347 347 347 348 348 348 347 349 348 347 346 347 346 348 346 350 346 346 347 346 344 344 344 344 344 343 342 341 340 340 339 339 339 342 344 344 344 343
307 301 301 299 300 300 303 302 303 306 305 306 306 307 308 308 327 325 327 326 327 333 335 338 340 341 343 343 343 344 344 343 344 342 341 340 341 341 341 342 342 342 344 345 348 348 348 348 347 347 346 345 346 346 346 347 348 346 347 349 349 349 348 348 350 348 348 349 345 348 347 345 344 346 345 341 344 349 348 344 344 343 343 344 344 343 342 341 339 338 338 338 339 343 344 347 345
304 302 301 298 302 303 306 305 305 305 305 306 307 308 310 313 327 328 319 320 329 328 333 335 335 337 339 341 342 341 341 341 341 340 339 340 339 338 339 340 341 342 342 343 344 347 348 348 347 345 345 345 345 344 345 345 344 346 345 346 346 345 348 348 346 346 347 346 345 344 345 348 349 348 349 346 346 343 348 344 344 345 344 343 344 344 343 340 339 338 336 338 338 339 347 343 345
306 303 300 301 305 305 305 305 305 306 306 306 306 307 312 323 326 333 322 325 328 326 329 332 332 333 335 338 340 340 340 339 340 339 338 338 338 338 338 339 340 341 342 342 343 347 347 346 344 344 344 345 343 343 344 344 342 345 345 346 347 347 345 345 345 346 346 347 345 346 347 348 349 350 348 346 347 348 347 347 345 344 343 343 341 345 341 341 339 337 337 335 339 343 343 341 339
306 304 302 303 306 303 304 305 306 307 307 306 306 307 313 327 329 326 326 322 323 326 332 332 332 333 335 337 338 339 338 339 339 340 339 337 338 339 339 339 339 340 342 343 343 344 345 345 343 344 344 345 341 342 343 342 344 343 343 344 346 345 345 345 345 346 346 346 346 348 348 348 349 350 350 350 350 349 349 349 347 347 347 347 342 346 344 343 345 337 334 337 340 342 341 341 341
308 304 305 306 306 303 306 306 307 306 307 306 306 305 322 331 330 325 327 321 321 327 333 336 337 337 335 336 337 338 338 338 337 339 339 338 338 338 339 340 342 343 343 341 341 342 343 342 342 342 345 343 344 343 344 342 343 343 344 344 345 345 345 345 345 346 346 347 347 347 348 348 347 350 350 350 351 349 348 347 348 348 348 346 343 346 344 345 345 340 336 334 338 342 342 342 342
302 305 305 308 307 304 307 307 306 306 306 305 305 307 316 327 326 328 326 328 331 337 337 337 336 337 338 339 338 336 337 337 338 338 339 338 338 339 339 339 338 338 339 339 340 341 343 343 343 344 343 342 344 344 345 343 342 343 344 345 343 343 345 345 344 345 347 347 347 348 347 346 345 346 347 348 348 349 349 347 348 348 348 348 347 343 343 344 343 343 339 337 337 339 341 341 340
304 303 306 305 307 305 307 306 306 306 305 305 307 308 307 325 321 329 328 332 333 337 337 337 337 338 339 337 336 336 337 337 338 340 340 340 340 339 340 338 339 339 336 338 339 341 342 342 344 344 342 343 344 344 344 342 343 344 345 344 344 344 345 344 344 344 346 346 347 347 347 346 345 344 346 345 346 347 346 348 349 347 346 347 348 345 343 343 342 342 343 339 336 337 338 340 340
301 302 305 305 306 306 307 307 307 306 306 307 308 308 307 321 328 329 329 332 334 336 338 336 337 338 338 336 336 337 337 338 338 339 340 340 341 341 341 339 339 337 335 337 338 339 341 341 343 343 344 343 344 345 343 342 343 344 344 343 343 345 345 345 345 345 345 344 347 347 348 348 345 346 345 346 347 346 347 348 347 346 348 346 346 345 344 342 343 341 342 340 339 338 339 340 339
303 303 305 305 305 306 307 306 306 306 307 311 319 316 312 320 333 327 331 333 335 337 336 336 337 336 336 336 336 337 338 338 338 337 338 340 341 339 339 339 337 336 336 338 337 339 341 343 343 344 343 343 343 344 343 343 344 344 345 345 346 346 345 346 347 347 346 347 346 347 347 346 346 346 345 346 346 347 346 348 347 346 347 346 345 345 345 343 341 341 341 340 338 338 336 339 339
306 305 306 305 306 306 307 305 306 306 306 316 317 317 318 329 327 320 334 335 335 334 333 335 335 334 335 336 336 337 336 337 337 338 337 338 338 338 338 337 336 336 338 338 339 340 343 344 344 345 345 345 343 343 344 344 346 346 347 347 347 347 347 348 349 349 348 348 348 347 347 347 348 346 346 346 346 346 347 346 346 347 345 345 347 345 347 345 344 343 341 339 340 339 339 339 337
305 305 305 305 305 305 306 305 305 306 307 315 318 320 323 326 321 323 331 335 336 332 332 333 333 333 334 335 335 336 337 338 337 338 337 336 336 336 337 335 336 337 337 339 340 343 343 344 346 347 347 346 345 344 346 347 348 348 349 349 350 349 350 349 347 349 348 347 347 347 347 348 347 348 348 348 349 347 347 346 345 345 345 345 346 345 345 346 346 346 345 344 343 342 339 339 340
304 304 300 302 303 303 305 304 305 306 305 314 321 319 319 321 317 328 333 335 336 334 332 332 333 333 334 334 335 335 336 337 338 338 337 338 339 338 337 339 338 338 339 342 342 344 347 346 343 346 347 347 347 347 347 349 350 349 348 349 349 348 349 350 348 348 347 347 347 347 347 347 348 350 349 349 346 348 348 347 345 346 348 346 347 345 346 347 346 345 347 349 345 344 340 340 340
304 303 302 301 301 300 304 306 306 305 310 318 319 304 312 319 324 329 334 334 334 331 330 331 332 333 334 334 334 334 336 336 336 337 338 338 339 338 338 339 338 339 339 341 345 345 347 341 340 342 345 346 346 348 348 347 349 349 348 349 350 349 348 349 347 347 347 347 348 348 347 348 348 348 349 349 346 349 349 347 344 345 345 346 347 348 345 346 344 344 344 345 344 344 343 343 341
298 301 302 299 298 297 304 305 305 303 312 318 318 306 313 319 324 330 334 334 330 327 329 330 332 332 333 334 334 333 333 335 335 337 339 339 339 339 340 341 342 343 341 344 344 343 339 338 341 342 346 347 345 345 346 346 348 348 347 348 348 348 347 348 348 349 348 349 349 348 348 348 347 347 348 348 347 347 347 346 346 345 347 347 346 347 345 347 346 344 344 343 346 345 343 343 342
301 297 295 299 298 299 303 305 304 302 313 320 314 306 310 320 323 328 332 332 331 327 328 330 331 331 332 332 333 332 332 335 336 336 338 339 340 339 340 341 342 343 344 344 344 338 336 342 342 344 343 345 347 347 348 348 348 347 347 345 347 348 347 347 348 348 347 346 348 349 348 348 347 348 348 347 346 347 347 346 346 348 347 347 346 346 347 346 346 345 345 345 341 342 343 343 343
300 298 297 296 298 299 299 302 305 306 314 318 312 304 317 318 326 327 330 331 330 328 328 328 329 329 329 330 330 331 331 333 334 335 337 338 339 340 341 342 342 344 345 343 342 339 341 341 343 343 343 347 348 348 348 348 347 347 347 347 346 346 346 346 345 346 346 347 348 347 348 348 349 349 349 348 347 348 347 347 347 347 349 348 347 347 346 345 345 342 343 344 343 341 341 340 342
296 298 297 299 296 299 297 302 305 308 314 310 313 309 314 320 325 325 328 330 328 328 327 327 328 328 329 329 329 330 330 331 332 333 336 339 339 341 343 342 343 343 346 341 338 340 340 343 343 343 346 348 347 347 347 346 347 346 346 345 345 343 344 345 344 344 344 344 345 344 345 346 345 346 347 348 349 348 347 347 348 349 348 348 347 347 347 347 346 344 341 343 344 343 341 341 341
295 295 297 297 299 299 298 297 303 308 311 308 311 312 319 321 323 325 327 330 328 324 321 323 326 328 329 329 329 330 330 331 333 335 336 339 341 342 342 340 339 338 337 336 343 340 339 340 342 343 345 346 346 347 348 347 347 347 348 345 346 345 345 343 344 343 343 344 344 344 344 344 344 345 345 346 347 346 347 348 348 348 348 346 346 345 345 346 346 345 342 343 342 343 341 343 342
298 297 298 298 296 297 298 304 306 309 307 308 307 311 314 320 321 324 327 329 322 318 318 317 323 326 326 325 325 328 329 329 333 336 336 338 338 339 337 334 333 336 338 339 339 339 340 343 344 344 344 346 347 348 348 347 346 345 344 345 342 342 342 341 342 341 343 342 343 343 343 344 344 345 344 345 346 346 347 346 347 347 347 345 344 343 342 343 344 343 342 340 341 342 343 343 343
300 299 298 298 297 298 302 304 310 313 307 307 306 312 316 319 320 322 326 324 320 317 316 321 322 323 324 320 318 318 319 321 323 323 326 331 330 330 331 331 333 334 338 341 336 340 344 343 344 343 346 346 346 344 343 342 342 341 342 340 337 339 339 339 340 342 341 341 342 342 341 342 343 343 343 344 345 344 345 346 345 345 345 344 342 342 344 344 344 345 343 343 341 340 340 342 343
298 298 298 297 299 297 302 304 309 316 309 310 311 310 313 316 318 320 322 322 319 318 319 322 323 323 321 320 319 318 320 324 326 325 326 326 329 329 331 330 332 333 336 339 341 342 343 343 343 343 345 346 346 345 344 344 343 342 340 338 338 338 338 337 337 338 339 339 340 340 341 341 342 341 342 341 342 342 342 340 341 341 341 343 344 344 344 343 343 343 343 340 342 339 339 341 341
298 298 298 297 298 304 307 308 310 311 310 307 313 311 311 313 315 317 321 321 322 323 324 324 323 321 321 321 319 319 320 321 322 324 325 326 327 329 330 331 331 334 335 337 339 342 343 343 344 344 344 345 346 346 344 341 342 342 340 338 338 336 338 338 337 337 337 337 337 338 338 339 339 338 339 340 340 340 340 339 339 340 341 342 342 342 343 342 341 341 341 338 336 338 338 340 340
298 297 297 295 300 299 298 306 309 309 308 309 313 309 309 312 315 315 318 320 321 324 325 325 326 323 323 323 323 322 321 321 320 322 324 325 326 327 329 329 330 332 334 336 337 339 340 340 341 342 344 344 343 341 341 342 342 341 341 339 338 337 334 335 335 336 335 335 333 335 335 336 336 335 335 336 337 338 338 338 339 340 341 342 341 340 341 340 341 340 341 340 338 333 335 336 340
299 298 298 297 299 298 301 303 308 310 311 313 312 309 308 310 310 312 315 320 320 322 323 324 325 327 327 327 326 325 322 321 321 321 323 324 324 326 327 328 330 330 332 333 334 335 335 336 338 339 339 340 339 340 341 341 339 338 337 337 336 334 334 333 333 331 332 332 332 332 331 332 332 331 333 333 333 333 333 334 335 336 336 337 338 337 337 337 338 338 338 338 337 334 330 334 337
297 299 299 299 299 300 304 307 304 303 304 310 307 298 299 310 312 312 314 316 318 321 320 320 323 325 325 324 324 324 324 325 324 322 323 324 324 325 326 327 327 328 328 330 333 334 335 335 337 338 337 337 338 339 340 340 338 336 334 333 331 330 329 330 328 328 328 329 327 329 328 326 328 328 327 327 327 328 328 328 330 329 328 329 330 331 333 334 335 335 335 335 334 336 335 330 331
295 296 299 301 301 304 305 304 302 298 297 306 308 296 294 308 309 312 314 315 315 318 319 319 322 324 324 322 323 323 323 323 325 325 325 324 325 324 325 325 327 327 326 329 330 331 332 332 334 335 335 335 337 338 338 338 337 336 334 333 332 330 328 327 328 328 327 326 326 325 325 325 324 324 324 323 322 323 324 325 326 326 326 326 326 326 326 327 327 329 331 334 333 333 334 329 330
295 300 299 303 304 303 302 302 301 299 303 309 310 305 299 299 308 314 313 312 314 315 316 318 320 322 322 322 324 324 323 323 322 324 324 324 325 325 323 323 324 325 326 328 328 330 330 331 332 332 332 333 334 335 335 336 334 333 332 331 330 328 328 325 325 325 325 325 323 323 324 324 324 323 322 321 321 321 322 322 322 322 322 323 323 323 323 324 325 326 327 329 330 330 329 329 330
297 300 300 300 304 303 303 302 300 301 303 300 304 305 299 298 308 314 314 309 311 312 314 317 319 321 321 321 322 322 324 324 323 322 321 321 321 322 323 322 324 324 325 325 327 328 329 329 329 329 330 331 330 331 332 333 333 332 331 329 326 326 326 325 325 325 324 324 323 323 323 323 323 323 323 323 324 322 321 321 321 321 321 320 320 321 321 322 323 324 324 325 325 325 324 326 326
299 301 301 302 303 305 303 301 300 301 298 292 298 302 294 296 307 309 313 312 310 312 315 317 318 319 320 320 320 321 322 322 323 323 322 321 321 320 322 322 322 322 323 324 324 325 325 325 324 324 325 326 327 329 330 330 330 329 329 328 326 324 324 324 324 323 323 323 321 321 321 320 320 320 320 320 321 321 320 319 318 319 319 319 318 320 320 320 321 321 323 324 326 325 324 323 322
303 302 301 301 301 301 302 302 301 299 290 294 300 302 298 292 304 306 306 308 312 314 316 317 318 319 319 321 321 321 321 321 321 320 321 322 323 323 322 321 321 322 323 323 323 324 324 324 325 325 326 326 327 327 327 326 327 326 325 325 324 322 323 322 321 321 320 321 320 320 319 318 318 317 318 317 318 318 318 318 317 317 318 318 317 317 318 317 318 320 322 323 324 322 322 322 322
301 299 298 297 297 300 298 299 301 290 288 295 301 302 300 290 300 306 311 314 315 315 314 315 316 317 318 319 320 321 322 321 320 320 320 320 321 322 322 320 320 321 322 322 323 325 325 324 324 323 324 324 324 324 325 324 323 323 323 322 321 321 321 320 319 318 318 318 318 317 317 317 316 315 315 314 315 316 316 315 316 316 315 316 315 316 317 316 317 319 318 318 319 319 319 318 320
299 298 297 292 289 290 287 292 287 288 288 296 301 300 296 295 301 308 310 313 315 318 317 317 317 317 318 319 320 321 322 322 320 321 320 320 320 321 321 320 320 320 321 322 322 324 324 323 323 322 321 323 322 323 322 322 321 321 320 320 319 319 318 318 317 316 317 316 316 316 315 313 313 313 313 313 313 314 314 314 314 313 314 315 315 315 315 315 316 316 315 315 315 314 313 314 314
296 295 294 291 287 285 282 287 290 291 295 299 299 302 295 299 304 311 310 314 317 318 319 319 318 318 318 319 319 319 320 320 319 321 320 320 321 321 321 320 320 320 321 322 322 323 323 321 321 321 321 322 321 321 320 319 319 319 319 319 318 317 316 316 315 314 315 315 314 314 313 313 311 312 312 312 313 313 312 313 313 313 313 314 313 313 314 314 315 314 313 312 312 312 312 312 312
295 299 296 294 293 288 282 287 284 287 291 295 301 297 293 294 299 312 315 315 318 319 319 320 319 320 320 319 319 318 318 318 320 320 319 319 319 320 320 320 321 320 320 320 321 322 322 320 319 319 319 319 320 318 318 318 317 317 317 317 316 316 315 314 313 314 314 313 313 313 313 312 311 312 312 312 312 312 312 312 312 312 312 312 313 313 313 314 313 313 312 312 311 311 312 311 310
297 298 299 295 293 298 289 291 292 292 292 291 296 294 300 301 310 314 316 316 318 318 318 318 317 318 319 317 316 317 318 318 320 320 319 320 320 319 319 320 320 320 320 321 321 321 321 320 319 319 318 318 318 317 317 317 316 316 316 315 314 314 314 314 313 312 312 313 313 311 311 311 312 311 312 311 311 311 311 310 311 311 311 311 312 311 312 312 312 311 311 311 310 311 311 311 310
295 296 292 295 302 299 291 290 297 293 292 289 297 298 301 309 309 311 312 313 315 316 317 317 316 316 317 316 316 318 319 319 319 319 319 320 320 319 319 319 319 320 320 319 320 321 320 320 319 318 317 318 317 317 316 315 315 314 313 313 313 313 313 312 311 312 312 312 312 311 310 310 312 312 311 311 311 310 310 310 310 309 310 310 310 310 310 311 311 311 310 310 309 311 311 311 310
297 291 296 301 302 301 295 287 288 289 286 288 296 293 296 296 292 311 310 311 313 314 314 316 315 315 315 316 317 317 317 318 318 318 319 319 319 319 319 319 319 318 318 318 319 321 320 319 319 317 317 316 316 315 314 314 313 312 312 312 312 312 311 311 312 311 311 311 311 311 311 310 310 311 310 310 310 309 309 309 309 308 309 309 309 310 310 310 310 309 310 309 309 310 310 310 310
298 295 302 294 288 288 295 291 283 283 283 287 293 296 296 296 298 306 307 309 311 312 314 315 313 313 314 316 317 317 317 317 317 317 317 317 318 318 318 317 317 318 319 319 318 319 319 319 318 318 316 315 315 315 314 313 313 312 312 312 311 311 311 311 311 311 311 310 310 310 310 310 311 310 310 309 309 308 308 307 308 307 308 308 308 309 309 309 309 308 309 308 309 309 308 309 310
300 302 298 301 298 294 290 291 294 292 285 286 290 294 290 300 302 306 308 311 312 313 312 313 313 313 314 315 315 315 315 315 316 317 317 317 317 316 316 317 317 317 316 317 318 318 317 317 317 316 316 315 314 313 313 312 312 312 311 311 311 311 311 310 310 311 310 310 309 310 309 310 309 310 309 308 307 307 307 307 307 306 306 307 307 307 308 308 308 308 308 308 308 308 307 307 308
293 295 295 296 297 300 298 298 293 291 287 287 288 287 294 302 307 309 311 312 313 314 312 313 314 313 315 315 315 315 315 315 315 316 316 316 315 315 316 317 317 317 317 317 317 317 316 316 316 315 314 313 312 312 312 311 312 311 311 310 310 311 311 310 310 310 310 310 310 310 309 310 309 308 308 307 307 307 306 306 305 305 305 306 306 306 307 308 307 307 307 307 307 307 306 307 308
295 294 293 295 293 291 289 288 296 295 292 288 288 287 297 309 312 313 311 315 315 316 315 313 314 314 315 314 315 315 314 315 315 315 315 314 315 315 315 316 317 316 316 316 315 315 316 316 315 313 313 312 311 311 311 311 311 310 310 310 310 310 310 310 310 310 309 309 309 309 309 309 308 308 307 306 306 307 306 305 305 305 305 305 305 305 306 307 306 306 306 307 306 306 306 306 306
Wind_Speed
8 6 6 5 6 6 6 1 8 2 6 8 9 7 5 2 4 7 6 4 5 7 3 3 4 5 6 5 3 8 10 7 6 5 3 4 6 9 10 16 17 17 16 15 14 13 14 15 17 17 15 17 15 14 12 13 14 13 13 13 14 14 14 13 13 13 14 13 13 13 13 13 13 13 14 14 13 13 12 12 12 13 14 14 15 14 15 14 14 14 14 14 15 15 14 14 13
6 7 5 4 5 5 3 4 6 8 6 9 8 6 4 7 6 5 7 5 5 4 3 1 1 1 1 1 1 3 9 11 10 9 7 8 10 9 14 15 16 17 15 15 14 13 14 15 16 17 17 18 17 15 13 14 14 13 14 14 14 14 13 13 14 13 13 12 14 13 13 14 14 14 15 14 13 14 13 13 14 14 14 13 14 14 14 14 13 13 14 14 13 13 13 12 11
5 6 3 5 5 5 2 5 8 7 9 10 8 5 3 5 4 5 6 6 5 4 2 3 3 1 4 2 7 5 3 5 10 11 9 11 12 10 14 15 15 16 16 13 13 13 12 14 15 16 18 17 16 15 15 14 14 14 14 14 14 14 14 13 13 13 13 14 13 13 14 15 14 15 16 16 15 15 14 14 14 14 13 13 13 13 13 12 13 13 12 12 11 10 10 9 9
5 3 5 3 4 2 6 5 7 7 9 9 11 4 4 3 3 4 5 4 4 1 1 4 4 3 6 7 6 6 9 5 8 11 9 9 9 13 14 14 15 14 13 12 13 12 12 15 16 17 17 17 17 15 15 14 14 14 14 14 14 13 13 13 14 14 13 14 14 15 15 15 15 15 15 15 15 14 14 13 13 14 14 13 12 12 12 12 12 11 11 11 10 10 8 7 7
4 2 4 5 6 5 4 5 8 8 11 8 9 6 1 1 4 3 3 2 1 2 3 3 3 3 7 9 2 2 7 9 7 7 9 9 13 14 15 14 14 14 13 13 13 12 14 17 15 14 15 17 17 15 15 15 14 14 14 13 14 13 13 13 14 14 15 15 15 15 14 14 14 13 14 14 14 14 14 13 12 12 12 12 12 10 11 11 10 10 10 10 9 8 7 6 6
3 4 2 4 4 5 5 7 8 10 10 11 11 7 4 3 4 3 2 0 2 1 2 4 4 7 5 6 7 5 3 3 8 8 10 11 14 15 14 13 14 13 13 12 12 11 13 16 15 13 14 16 17 16 16 15 14 14 13 14 14 14 13 13 14 15 15 15 14 14 14 13 13 12 13 13 13 13 13 12 12 12 11 11 11 10 9 10 9 8 9 9 8 7 6 6 6
2 4 4 4 2 4 8 11 11 11 10 5 7 10 2 4 3 2 1 3 4 1 2 3 2 6 7 6 9 6 2 4 8 9 9 14 15 14 14 13 13 13 13 12 11 12 16 13 13 13 14 15 16 16 16 15 14 13 13 13 12 13 14 14 15 15 14 14 14 14 14 13 12 12 12 12 12 12 12 11 11 11 11 11 10 9 8 9 8 8 8 8 7 6 6 6 7
1 6 1 6 5 4 9 11 13 9 5 1 3 7 5 5 1 4 6 5 4 5 5 4 7 5 8 5 2 6 6 2 10 11 16 14 15 14 13 13 13 13 13 12 12 13 16 12 12 13 15 13 15 15 15 15 14 13 12 12 12 13 14 15 15 14 13 14 14 14 13 12 12 12 12 12 12 11 11 11 11 10 10 10 10 10 9 8 8 8 7 6 5 6 7 8 9
4 6 1 7 9 6 9 12 12 11 9 2 5 4 3 4 5 6 9 5 2 3 4 7 7 8 6 8 8 7 6 9 12 14 15 14 14 14 10 12 13 12 13 12 13 13 13 12 12 13 14 14 14 14 14 14 13 13 12 12 12 10 13 14 15 15 13 13 13 13 12 11 11 11 11 11 11 11 10 10 11 10 10 10 9 9 9 8 8 8 7 5 5 6 7 9 11
5 6 5 6 7 11 10 10 11 9 8 2 5 5 5 7 8 9 8 9 7 3 6 2 6 2 10 10 11 7 7 11 14 14 14 14 13 12 13 13 13 15 13 13 13 12 12 14 11 12 12 13 13 12 12 11 10 10 11 12 12 12 13 14 14 13 13 13 13 12 11 11 10 10 10 10 11 10 10 10 10 9 9 9 9 8 9 8 8 7 6 5 5 5 7 9 11
6 5 4 7 9 11 13 12 11 6 7 4 4 4 5 5 7 8 10 9 6 8 7 6 9 9 9 10 7 3 8 12 13 15 14 13 12 13 12 12 12 13 14 14 14 13 12 13 15 11 11 11 10 10 10 10 12 10 10 11 12 13 13 13 13 13 13 12 12 11 10 10 10 9 9 9 9 9 9 9 9 9 8 8 8 8 8 8 7 6 5 4 5 5 6 9 10
8 6 6 9 12 11 10 11 10 6 1 4 6 5 4 5 5 8 10 12 8 9 9 11 7 10 9 9 7 6 10 11 13 13 13 13 12 13 12 10 12 13 14 14 14 13 13 13 12 14 12 11 11 11 11 12 11 10 10 12 11 12 12 12 12 12 11 11 11 10 9 9 9 9 9 8 8 8 8 8 9 9 8 7 7 7 8 7 7 5 5 4 4 5 7 9 10
9 6 8 9 10 10 9 8 9 7 7 6 4 6 1 6 7 9 10 11 10 11 10 10 10 10 8 8 8 8 10 11 11 13 13 12 12 11 11 11 12 13 13 12 13 14 14 12 12 12 12 13 12 12 11 11 12 12 12 12 11 12 14 13 12 11 11 10 10 10 10 9 9 9 8 7 7 8 8 8 8 8 8 8 7 7 8 8 6 5 4 4 4 5 7 10 10
9 6 7 10 5 8 8 8 6 6 7 6 4 2 1 5 6 7 6 10 12 12 8 9 9 5 9 11 9 10 10 12 13 13 11 13 11 11 12 11 11 12 12 11 12 12 12 11 11 13 13 11 11 11 12 11 12 11 10 11 11 12 13 13 11 11 10 10 10 10 9 9 8 8 8 7 7 7 7 8 8 8 8 8 7 7 7 7 6 4 4 4 4 5 7 9 9
8 4 7 8 7 8 9 9 7 7 7 9 6 3 5 3 2 5 8 9 10 5 9 7 4 9 7 11 10 11 12 14 14 12 12 13 13 12 12 11 11 11 11 11 11 11 11 11 12 11 11 11 11 9 8 11 12 11 10 11 11 12 13 12 12 11 10 10 10 9 9 8 8 7 7 7 6 5 6 8 7 7 8 8 7 7 7 7 6 4 4 4 4 5 7 9 9
6 4 7 8 10 9 7 9 6 4 3 7 6 3 6 3 1 6 7 9 7 4 9 7 2 3 5 6 14 16 15 15 14 12 12 14 13 12 12 11 10 10 10 10 9 9 9 10 9 9 9 9 9 9 10 10 12 11 11 11 12 12 12 11 10 10 10 10 10 8 7 9 9 7 6 7 7 5 6 7 6 7 7 8 7 7 7 6 5 5 4 4 4 5 7 8 8
4 6 8 8 11 10 5 8 7 7 7 3 3 3 5 4 3 2 2 3 10 10 7 6 5 1 4 9 19 19 16 14 14 14 13 11 11 10 10 9 9 9 8 9 9 9 9 9 9 8 8 8 8 9 9 9 10 11 10 11 11 10 10 10 10 10 11 10 8 5 4 1 4 4 7 4 8 5 6 5 6 6 6 7 8 8 7 6 5 4 3 3 3 6 7 8 7
7 9 9 11 10 9 6 7 7 6 3 3 3 5 6 5 5 5 8 8 8 11 8 7 9 10 12 16 18 18 17 16 14 15 13 12 10 10 10 9 9 9 8 8 8 8 8 8 8 8 8 9 8 7 7 8 9 9 9 9 8 9 9 9 9 6 7 7 6 6 2 3 4 5 5 3 4 7 7 5 6 5 6 7 7 8 8 6 4 3 1 2 3 6 13 7 7
9 8 9 10 9 1 1 2 1 3 0 4 4 4 6 4 5 7 9 12 12 12 10 10 12 13 14 16 18 18 17 15 14 13 14 13 10 12 10 9 9 9 8 8 7 8 7 7 8 8 9 9 8 8 7 7 8 7 8 8 7 7 7 6 6 5 5 4 4 4 3 3 3 4 5 4 4 6 6 5 5 5 5 6 5 7 7 6 4 3 1 1 4 8 10 4 5
11 8 10 10 2 3 3 2 1 2 5 5 5 6 7 2 6 7 9 12 13 13 12 13 13 15 16 16 17 18 16 16 14 14 14 13 12 11 11 11 10 9 9 8 8 7 7 7 8 7 8 8 7 6 6 6 6 6 6 6 6 6 6 5 5 4 4 4 4 3 3 3 3 4 7 8 6 6 6 8 7 7 9 7 4 8 11 7 6 6 3 4 8 8 4 4 3
9 9 9 7 5 6 5 4 3 2 4 5 6 7 5 5 5 7 7 12 12 9 9 11 14 16 17 17 18 17 17 16 14 13 13 13 12 9 9 9 9 8 8 8 7 7 8 8 7 8 8 7 6 6 6 6 6 5 6 5 5 5 5 5 5 5 5 5 4 3 3 2 2 3 2 2 2 2 4 4 5 3 3 4 6 1 3 5 9 6 6 7 6 4 3 1 1
4 12 10 2 2 7 3 4 1 2 2 6 5 7 2 4 5 8 9 10 9 7 8 6 13 15 17 18 18 17 16 15 14 13 13 13 12 11 10 9 9 8 8 7 8 8 7 7 8 7 7 7 6 6 6 7 6 6 6 6 5 5 5 5 5 5 5 4 3 3 1 2 1 2 2 2 1 1 1 1 1 2 2 2 2 2 2 1 1 2 4 5 4 4 3 2 2
8 10 10 5 4 5 4 3 2 3 4 5 6 3 3 6 6 6 10 0 6 5 9 8 13 14 16 16 16 17 17 15 14 13 12 12 11 10 10 9 8 8 7 8 7 7 7 7 7 7 7 7 7 7 7 6 6 6 6 6 6 6 5 5 5 4 4 4 3 2 1 1 1 1 2 2 1 1 1 1 1 1 1 1 1 1 1 1 2 1 2 3 3 4 4 4 4
11 6 10 11 8 8 4 5 2 5 5 6 4 5 6 6 7 6 7 3 3 4 5 11 14 15 16 17 15 16 14 14 13 12 11 11 11 10 10 9 8 7 7 9 8 7 8 8 8 7 7 7 7 7 7 6 6 6 7 6 5 5 5 4 4 4 3 2 2 1 1 1 1 1 1 1 2 1 2 2 2 1 1 1 1 1 1 1 1 1 1 2 4 5 5 5 4
13 10 6 6 7 7 6 6 5 4 5 5 4 6 5 7 6 7 7 5 5 7 10 13 15 16 15 15 16 15 14 13 12 11 9 7 10 11 10 8 8 8 9 9 8 8 9 8 9 8 8 8 7 7 7 6 7 7 6 6 6 5 5 4 4 4 3 2 1 0 1 1 1 1 1 1 1 1 1 1 1 1 1 1 1 0 1 1 2 2 1 3 3 3 5 5 5
13 12 6 7 7 7 7 6 6 6 4 3 6 2 3 5 10 5 5 6 5 8 12 15 17 17 16 16 15 14 13 13 12 11 10 8 9 11 10 9 9 9 9 9 9 8 8 8 9 9 9 8 8 7 7 6 6 7 6 5 6 5 5 5 5 4 3 2 1 1 1 1 1 1 1 1 1 1 1 0 1 1 1 1 2 2 2 2 2 2 2 3 3 3 4 4 4
12 11 8 8 8 7 5 8 6 4 5 5 4 3 7 9 9 5 4 7 8 10 12 15 16 17 16 14 13 12 13 12 12 10 10 9 9 9 10 10 9 9 10 10 8 8 8 9 9 9 9 9 8 7 7 7 6 5 5 5 5 5 5 5 4 3 2 2 2 2 2 2 0 1 0 1 1 1 1 1 1 1 1 1 2 2 3 3 2 2 2 3 3 4 3 3 4
5 9 10 10 8 7 6 7 5 5 6 6 5 6 6 6 8 4 10 9 9 13 14 15 16 16 15 15 14 13 13 11 10 10 11 11 8 9 10 9 9 10 10 9 8 9 10 10 10 10 9 8 8 8 7 6 5 5 4 4 4 4 3 3 3 3 2 3 3 2 2 1 1 0 0 0 1 1 1 2 2 1 1 1 2 2 3 3 3 2 3 3 4 4 5 4 4
5 6 8 11 11 10 11 11 10 8 5 8 8 8 9 7 6 8 11 10 10 12 14 16 16 16 16 14 12 12 10 9 8 8 8 7 8 8 10 9 10 10 8 9 9 10 10 9 7 6 7 7 7 7 6 5 5 5 4 4 3 3 3 3 3 2 3 3 2 2 2 2 1 0 1 1 1 1 1 1 1 1 1 1 1 2 3 3 3 3 2 3 4 4 5 5 5
5 7 7 7 9 11 13 11 6 7 6 10 10 9 9 7 6 7 11 13 13 14 13 14 13 13 13 13 11 10 9 8 7 7 7 7 8 9 10 10 10 9 9 9 10 10 7 6 3 4 5 5 6 6 5 4 4 4 3 4 4 4 3 3 3 3 2 2 2 2 1 2 0 0 0 1 1 0 1 1 1 1 1 2 2 2 2 2 2 3 3 3 2 4 4 5 5
10 8 7 7 8 10 14 11 11 10 9 11 9 9 7 10 7 7 10 13 14 14 14 15 13 14 12 12 12 10 8 7 7 7 7 7 8 10 11 11 11 9 9 10 10 10 7 6 5 5 6 6 7 7 6 6 5 5 4 4 4 4 3 3 3 3 2 1 1 1 2 2 2 1 1 2 2 2 1 1 1 1 1 2 2 0 3 3 2 3 2 3 2 4 5 4 4
9 9 9 9 8 9 11 9 11 11 7 10 7 9 7 9 10 8 10 12 13 14 14 14 13 12 13 11 12 10 9 8 8 7 7 8 8 9 11 11 10 10 10 10 9 8 8 7 8 7 8 8 7 6 6 6 6 5 5 5 5 5 4 4 3 3 2 1 1 1 1 1 2 2 2 2 2 2 2 2 1 1 1 2 2 1 2 3 2 3 3 3 4 4 5 5 4
10 10 8 11 10 9 10 9 8 5 10 10 12 2 7 10 9 6 9 13 13 14 14 12 13 13 10 8 7 8 9 9 8 8 9 9 9 9 10 10 9 9 9 9 7 9 9 10 9 9 9 8 6 7 7 6 6 7 6 5 5 5 4 4 3 2 1 1 2 2 2 2 2 3 3 2 3 3 2 2 2 2 2 3 3 2 2 2 2 3 3 4 4 5 5 6 5
10 10 7 8 15 9 10 11 8 8 11 10 11 6 8 9 10 8 8 11 12 11 12 11 10 11 11 10 9 9 8 9 9 9 9 9 9 10 9 8 8 7 8 8 10 7 9 8 8 7 7 7 7 7 7 7 7 6 6 5 5 5 5 4 4 4 3 3 3 3 3 3 3 3 3 3 2 3 2 2 2 2 3 3 3 3 2 2 2 3 3 4 4 4 5 5 5
11 12 10 8 11 10 10 13 11 12 13 11 10 6 11 12 10 9 9 9 10 8 7 8 10 11 11 11 10 10 8 8 9 8 9 8 9 8 6 7 6 5 8 8 7 9 7 7 7 7 7 8 7 7 7 7 7 6 6 6 6 6 5 5 4 4 4 3 4 4 4 3 3 3 3 3 3 2 3 2 2 2 3 3 3 4 3 3 3 3 3 4 4 5 5 5 5
11 14 11 8 10 9 6 9 11 12 14 11 12 8 10 10 9 8 8 9 13 12 10 3 5 10 10 8 5 3 3 5 4 6 7 6 5 5 5 9 6 5 9 8 9 9 8 9 7 7 7 6 6 6 5 5 5 4 5 5 6 6 6 5 5 5 4 4 4 4 4 4 4 4 4 4 3 3 3 3 3 3 2 3 3 4 4 3 4 5 4 5 6 5 4 4 4
7 12 13 9 11 9 8 8 8 8 12 13 12 12 9 10 9 6 11 12 13 13 10 10 9 9 10 10 11 9 10 10 10 12 14 12 11 9 7 4 4 5 9 8 9 8 9 8 8 8 6 6 5 5 5 5 6 6 5 6 6 6 6 5 5 5 5 6 6 6 5 5 5 5 5 5 5 5 4 4 4 4 4 3 3 4 4 5 4 4 5 5 5 6 5 4 4
6 8 11 8 9 9 7 9 8 3 9 6 7 14 10 8 7 6 8 11 10 11 12 9 11 11 9 10 12 11 6 5 8 9 9 9 8 8 8 3 2 9 7 8 9 9 8 8 8 8 7 7 7 6 6 5 5 5 4 5 5 5 5 5 6 6 6 6 7 7 7 6 7 7 6 6 6 6 5 4 4 4 4 4 4 4 4 4 4 4 4 5 4 5 5 5 4
6 8 10 9 7 11 8 8 8 8 6 10 11 12 8 8 8 7 6 10 9 9 10 10 12 10 9 9 8 8 11 10 11 8 7 7 7 3 4 5 5 5 8 8 9 10 9 9 8 8 7 7 7 6 6 7 7 7 7 6 6 7 7 6 7 7 7 7 7 7 7 7 7 7 8 7 6 6 6 6 5 4 4 4 4 4 4 5 5 5 5 5 6 5 6 5 4
8 8 10 11 11 12 10 8 9 8 6 11 12 10 7 7 8 8 5 8 9 6 8 11 11 11 11 12 12 12 12 12 11 11 9 7 6 2 3 6 6 7 8 9 8 9 7 8 8 8 8 7 7 8 8 9 10 9 8 8 7 6 7 7 7 6 7 7 7 7 7 7 7 7 8 8 7 8 8 8 7 7 6 6 5 5 5 5 5 5 5 6 6 7 6 5 3
9 10 9 9 13 12 10 10 10 9 7 12 13 8 5 3 5 5 5 7 11 9 9 9 9 10 10 11 9 10 12 14 14 11 10 11 8 3 4 6 6 8 8 9 8 8 7 9 8 9 8 8 7 7 9 9 9 9 8 9 8 8 6 5 5 5 5 6 6 7 8 8 8 8 8 8 8 8 8 8 8 8 9 10 9 7 7 7 7 6 6 6 7 7 8 6 5
9 8 8 5 12 8 12 16 16 11 9 12 15 8 7 7 7 6 6 7 9 11 12 11 11 12 13 12 11 10 9 11 16 13 10 11 11 8 7 6 6 7 8 8 9 10 10 8 9 9 8 8 7 7 6 5 6 6 6 6 6 5 5 4 5 5 5 5 6 6 8 8 8 8 8 9 9 8 8 9 8 8 8 8 8 8 8 9 10 11 10 8 8 8 8 8 8
10 11 5 5 11 13 16 17 15 12 12 13 14 12 6 7 10 10 8 9 10 11 11 12 12 12 12 12 11 11 10 12 13 13 11 11 10 11 9 7 6 8 8 8 8 9 10 9 9 9 8 8 7 7 6 5 5 5 5 4 4 4 4 5 5 5 5 5 5 6 6 7 8 8 9 9 9 9 8 8 8 7 6 6 6 6 7 8 8 9 10 10 10 9 8 8 9
8 13 11 6 10 13 15 15 12 9 8 11 11 9 8 9 11 11 9 9 11 12 12 12 11 11 10 11 11 11 10 11 14 14 12 10 10 10 10 9 7 5 6 6 7 8 10 9 9 9 7 8 7 6 5 4 6 6 6 5 5 5 5 5 5 5 5 4 5 5 4 5 7 7 8 8 8 8 8 8 8 8 8 8 7 6 6 6 6 5 7 9 9 8 10 9 10
7 11 13 9 9 11 11 12 11 8 10 11 12 10 10 9 10 13 12 11 12 14 13 13 13 12 11 11 10 10 10 11 13 13 13 13 13 13 12 10 7 5 6 6 7 8 8 9 9 9 9 8 8 8 7 7 6 4 4 5 5 5 4 4 3 3 3 3 4 3 4 4 5 7 8 8 7 8 8 7 7 7 7 7 6 6 6 7 8 8 8 8 8 9 8 8 9
8 11 11 8 5 8 10 8 8 9 11 11 13 14 12 9 11 12 13 13 14 14 14 15 14 13 12 11 10 11 9 11 12 13 12 12 12 11 9 10 8 6 6 8 8 8 8 8 9 10 10 8 7 8 8 8 7 6 5 5 5 5 3 3 2 2 2 2 4 4 4 5 5 6 7 9 8 8 8 8 7 8 7 7 6 6 7 7 8 7 8 8 9 10 7 8 8
12 10 11 9 9 7 5 5 8 8 10 12 15 16 13 10 11 13 14 14 15 14 13 12 13 14 13 12 13 11 10 11 12 12 13 13 13 13 11 10 8 8 7 8 8 8 8 8 9 11 10 8 8 8 8 8 8 8 7 6 6 5 4 3 3 3 3 3 4 4 5 5 6 6 7 7 9 9 8 9 8 8 7 7 7 8 8 8 8 8 8 9 9 10 8 9 9
13 10 11 10 7 6 7 5 6 8 9 12 14 14 14 13 10 12 14 11 15 16 18 19 19 17 14 13 13 13 12 12 13 14 14 14 13 13 11 11 9 9 9 9 8 8 8 9 9 11 10 9 8 8 8 8 8 9 9 8 7 6 5 4 4 4 4 4 4 5 5 6 6 6 7 7 8 8 8 8 8 8 7 8 8 8 8 8 8 7 8 8 8 9 9 9 8
13 12 12 13 9 7 8 9 9 9 8 7 11 15 12 13 2 12 16 12 13 16 15 18 19 17 15 14 14 12 12 14 14 14 14 14 15 15 15 14 12 10 9 10 10 9 9 9 10 11 10 9 8 8 9 8 8 8 8 8 7 6 6 6 6 6 5 5 5 6 6 6 6 7 7 7 8 8 7 7 7 8 7 7 8 8 8 8 8 7 8 8 9 9 9 10 8
15 15 14 13 12 11 10 11 6 9 6 5 8 11 10 7 5 4 14 13 12 15 14 16 18 18 16 15 14 12 13 14 13 14 13 13 13 13 14 14 13 11 12 11 9 8 8 8 9 10 10 8 8 8 9 9 9 9 9 8 7 7 7 7 7 7 6 6 6 6 7 7 7 7 8 8 7 7 7 8 8 8 8 8 8 8 7 8 8 7 8 9 9 8 9 10 9
14 12 14 13 9 9 9 10 11 11 7 9 7 8 7 11 4 4 2 7 10 12 12 13 14 14 14 14 13 13 14 13 13 13 13 13 12 13 12 12 11 11 12 10 9 9 8 8 9 11 10 9 9 9 9 9 9 9 8 8 8 7 7 7 7 7 7 7 7 7 7 7 7 8 8 6 7 7 7 8 8 8 8 8 8 8 7 7 8 6 7 8 7 7 8 9 8
13 12 10 12 12 6 9 2 6 10 8 9 10 6 1 2 3 2 2 3 7 10 15 16 13 13 15 14 14 14 13 13 14 13 14 14 13 12 11 11 11 11 11 10 10 9 8 8 9 10 10 10 10 9 9 8 9 8 10 10 10 9 8 7 7 7 7 7 7 7 8 7 7 7 6 7 7 7 8 8 9 9 9 8 8 8 8 7 7 7 6 7 8 6 7 9 8
13 13 14 13 7 6 3 3 7 4 5 7 7 6 4 5 6 4 6 7 11 12 16 18 17 17 16 15 15 15 14 14 13 13 13 15 13 12 10 10 11 11 10 10 9 9 10 10 10 10 10 9 9 9 9 9 9 10 10 10 9 9 9 9 8 8 8 8 8 7 8 7 8 7 6 6 7 8 8 8 8 9 9 9 9 9 9 8 7 7 7 8 8 8 7 8 8
10 12 12 6 2 3 6 6 3 6 8 4 8 11 9 9 7 9 8 11 14 15 17 17 18 19 19 16 15 15 15 14 14 14 14 14 14 13 11 10 10 10 10 10 10 10 9 9 10 11 9 8 9 9 9 9 9 10 10 10 10 9 8 8 8 9 8 8 8 8 7 8 7 6 6 6 7 8 8 8 8 9 9 9 9 8 8 8 7 7 7 7 7 7 7 6 7
8 11 11 11 10 7 8 3 9 11 9 5 8 11 10 12 7 9 12 14 17 17 17 19 18 19 19 17 17 17 16 15 15 15 14 14 13 13 12 12 12 11 11 10 10 10 10 10 10 10 10 8 8 7 8 7 8 7 7 8 9 9 8 8 8 9 9 9 10 10 9 7 7 7 7 7 7 8 8 8 8 9 9 9 9 9 8 8 8 7 7 7 8 8 7 7 7
7 8 12 12 7 10 10 7 4 7 8 7 7 9 7 12 8 14 15 17 18 18 18 20 19 19 17 17 17 18 17 16 16 15 15 14 14 14 13 12 12 12 12 11 11 10 12 11 11 10 8 8 8 9 8 8 8 8 9 9 9 8 9 9 9 9 9 9 8 8 8 8 7 7 7 7 8 8 9 9 9 9 9 9 9 9 8 9 8 8 7 7 8 8 8 8 8
14 11 10 11 8 3 6 8 11 7 6 7 5 6 7 8 7 13 15 17 18 20 21 19 17 19 16 17 18 18 17 16 16 15 15 15 15 14 13 13 12 12 11 10 10 11 10 10 10 9 9 9 8 8 8 8 8 9 9 9 9 9 10 9 9 9 9 9 8 8 8 7 7 7 7 8 8 8 9 9 10 10 10 10 10 9 8 8 8 8 8 8 8 9 9 8 8
14 13 12 11 12 9 11 8 9 10 8 5 6 5 5 6 4 7 13 14 16 18 18 17 17 18 17 16 18 19 17 17 17 16 16 15 15 14 13 12 12 12 12 12 10 10 10 9 8 9 8 8 8 8 8 8 8 8 9 9 9 8 9 8 9 9 9 9 8 8 7 7 8 8 8 8 9 8 9 10 10 10 10 10 10 10 9 8 8 9 9 7 8 10 10 9 9
Wind_Direction
286 318 326 300 284 277 279 243 292 167 260 281 294 274 318 68 353 289 295 338 287 87 337 290 231 210 255 350 16 64 35 4 30 284 34 103 131 128 145 132 134 138 133 134 126 133 130 130 131 131 130 125 124 122 118 117 116 113 111 110 109 107 106 105 103 103 101 101 102 99 95 91 89 85 83 81 78 77 78 83 90 93 91 95 101 99 101 105 104 97 96 95 95 93 89 86 84
327 320 291 282 279 285 200 341 284 270 257 275 276 290 357 331 290 351 352 350 2 41 29 47 141 117 29 275 96 147 63 45 48 80 102 111 133 137 132 133 139 136 132 130 133 131 127 131 131 133 130 126 125 124 123 120 118 115 113 111 109 107 104 104 103 103 103 102 95 94 94 88 84 83 85 80 77 75 72 77 83 87 90 92 92 95 97 99 102 103 101 100 98 95 88 81 80
328 313 267 233 244 268 317 230 280 297 282 277 281 298 48 297 347 37 41 55 73 86 51 80 106 152 182 209 176 271 94 82 85 94 110 138 133 137 138 136 140 134 132 132 128 128 126 128 131 133 130 128 126 127 124 121 118 118 116 114 112 110 106 105 105 102 99 98 100 99 94 92 88 84 79 78 78 74 71 70 77 83 87 88 92 94 95 95 96 99 100 96 96 93 86 78 77
294 292 298 274 243 213 257 241 260 276 282 286 285 69 341 350 63 44 70 68 73 240 186 143 224 58 289 200 52 91 103 79 72 116 123 158 129 141 136 131 137 134 133 132 130 127 123 129 133 134 132 127 127 125 125 123 120 121 118 116 114 111 108 107 104 101 103 101 96 88 84 83 82 81 80 79 78 75 71 72 73 78 79 83 89 88 89 90 90 88 88 88 86 86 86 86 91
273 227 271 269 286 253 284 296 288 287 268 277 290 321 64 106 105 75 73 57 63 299 230 121 167 89 39 44 2 277 83 84 112 122 122 112 123 131 130 133 139 132 134 130 127 122 121 129 134 133 132 129 128 128 127 124 122 120 118 117 116 113 111 108 105 104 96 91 89 87 83 82 81 80 80 80 79 75 72 70 71 74 74 73 70 74 79 81 84 86 87 88 86 85 87 89 95
232 242 184 256 278 7 260 252 252 251 260 274 276 312 57 105 97 41 79 146 43 213 356 196 318 161 166 45 6 102 71 174 119 124 121 124 127 127 130 141 139 131 129 125 120 123 128 130 133 133 130 127 128 129 126 125 123 120 117 118 118 116 114 110 107 102 99 95 89 85 82 79 78 78 79 79 78 77 75 73 71 71 75 75 74 75 80 86 88 87 90 87 84 84 86 90 97
240 221 183 210 184 231 260 269 271 278 278 281 280 295 234 150 100 307 206 232 135 282 202 265 190 134 151 124 90 44 88 120 149 121 127 126 126 132 136 140 128 123 126 120 120 122 123 128 130 130 130 129 129 128 127 125 122 121 120 121 119 118 116 111 106 100 98 94 90 87 83 80 78 77 78 77 74 73 72 74 76 77 74 74 78 85 87 88 87 90 89 86 87 92 95 98 107
267 267 140 252 252 193 248 259 264 266 282 232 346 282 263 170 234 266 267 264 126 240 157 212 193 232 73 204 80 92 121 42 91 110 119 131 128 132 138 131 128 128 126 120 120 116 121 124 127 129 129 129 129 128 125 123 122 122 121 121 123 121 118 111 106 105 102 99 95 90 87 87 85 84 85 84 84 81 81 81 84 85 85 86 86 88 93 98 99 97 94 90 91 94 98 100 114
188 243 108 262 253 233 259 260 267 264 266 230 243 259 303 231 244 276 266 234 293 251 205 194 181 210 132 121 102 95 83 110 115 121 122 129 132 132 134 136 131 128 126 121 119 123 129 122 125 129 129 128 128 127 126 123 121 122 122 120 116 116 117 111 109 105 102 98 95 94 93 90 89 87 88 88 86 88 89 88 86 88 89 89 92 96 100 102 102 96 94 88 84 95 106 112 121
185 244 206 237 268 255 255 257 253 259 261 254 261 236 217 224 240 245 256 240 233 214 178 195 199 223 135 111 119 117 110 121 123 124 126 130 133 133 137 134 131 134 131 127 125 126 123 126 124 124 126 127 127 126 122 120 119 116 118 113 110 115 112 109 106 105 103 100 98 97 96 97 95 94 92 92 93 90 90 90 89 86 90 92 93 95 96 98 96 94 90 82 79 86 120 127 128
215 195 292 251 241 252 254 264 257 234 234 214 233 220 237 240 246 241 236 244 218 215 153 194 196 144 145 117 84 79 129 133 129 128 131 129 129 127 124 129 131 134 133 134 127 126 130 130 124 119 121 124 121 119 113 106 100 104 109 112 116 117 114 109 107 105 103 103 102 101 101 102 101 97 95 93 93 93 92 92 91 86 86 92 96 97 99 98 92 89 87 86 88 102 128 136 135
233 201 187 237 246 252 260 266 266 275 249 223 244 205 206 239 227 234 223 222 206 210 188 198 146 149 127 129 128 140 144 143 127 129 127 123 119 122 127 131 136 135 133 133 131 134 132 131 133 126 117 115 112 104 99 98 99 100 105 117 115 116 115 114 111 108 107 106 106 107 105 98 95 92 91 91 92 92 88 88 85 88 88 90 96 99 97 91 90 90 91 89 88 110 131 141 141
244 212 214 241 249 251 260 268 265 289 281 237 191 113 347 239 223 222 220 215 200 204 200 199 125 184 140 130 122 137 147 131 127 128 125 123 123 126 129 132 139 137 138 140 136 134 139 137 131 136 125 119 110 103 103 100 100 101 106 106 115 119 121 119 116 114 111 112 113 112 104 97 94 94 90 87 87 88 87 83 90 90 87 86 91 96 99 98 93 94 90 88 88 110 137 143 146
231 219 237 243 243 258 254 256 267 253 249 123 101 60 283 258 224 244 243 213 197 204 178 150 162 120 102 115 143 148 132 135 129 132 131 125 127 127 130 131 133 135 138 136 134 139 141 137 133 127 139 138 130 121 110 110 110 104 96 98 104 109 115 118 116 117 119 121 118 112 109 106 102 103 99 92 86 85 83 79 81 88 96 93 87 95 100 103 106 98 95 88 84 110 135 147 146
228 212 242 252 246 236 234 248 241 234 247 139 85 339 318 186 268 244 232 213 189 171 98 151 154 188 174 168 156 159 142 140 134 131 126 126 125 126 127 126 132 133 136 136 137 139 140 135 136 137 143 139 139 128 128 124 115 110 107 108 106 113 116 119 122 124 125 119 123 117 116 115 111 105 110 102 100 103 115 109 77 84 88 93 90 88 98 107 114 108 95 85 84 100 133 148 148
236 207 230 239 237 235 212 225 224 259 199 145 74 341 301 117 217 235 219 249 128 113 169 141 231 300 125 185 152 141 140 134 131 129 129 125 126 126 124 128 134 134 130 133 139 135 133 136 137 139 141 138 134 129 131 127 118 119 117 115 113 114 118 119 124 124 123 109 93 107 130 140 142 118 133 119 112 114 50 66 93 86 85 94 94 88 88 102 115 112 97 94 98 107 126 142 144
223 231 219 230 241 220 196 213 189 238 111 136 59 357 323 288 99 224 8 225 158 163 177 131 131 219 143 101 125 133 133 130 134 135 129 128 130 130 132 137 137 129 134 137 132 130 134 136 137 136 139 134 128 124 128 123 121 131 128 119 117 117 118 123 120 127 124 114 125 121 196 129 89 117 174 103 173 105 102 108 102 98 93 97 105 95 95 102 106 112 103 101 118 131 127 136 134
197 207 222 226 234 224 207 211 201 45 173 101 10 4 335 287 145 155 185 184 166 141 137 109 94 82 92 111 124 132 134 138 143 142 139 139 143 139 140 139 143 139 142 140 134 136 139 142 135 131 127 117 125 129 127 131 141 152 133 140 137 136 137 144 163 144 139 122 149 178 111 108 127 112 102 151 119 147 127 113 113 109 102 104 102 106 95 94 106 99 114 131 141 168 160 159 155
200 209 222 236 220 182 119 196 294 248 105 344 344 347 343 308 170 152 185 173 161 159 150 146 116 104 113 125 131 136 140 139 147 146 145 146 149 147 144 145 139 139 142 138 136 139 138 130 126 122 122 138 139 136 133 136 144 139 144 137 133 148 139 164 140 153 130 118 96 91 119 117 115 105 93 88 94 66 118 132 120 121 116 98 102 106 108 108 112 130 153 242 213 209 207 162 168
211 230 220 232 286 135 209 110 166 262 333 314 323 342 318 135 198 154 204 169 172 173 157 155 142 133 137 137 141 138 142 144 148 152 149 148 145 144 144 142 141 142 141 143 139 137 139 128 119 125 138 139 147 132 138 140 136 140 133 146 144 137 146 138 135 120 111 105 119 119 134 140 121 117 129 157 176 168 142 163 159 167 154 143 175 178 144 140 153 162 176 233 225 216 201 195 170
186 226 227 234 166 223 187 194 220 297 315 311 318 321 272 179 176 183 173 176 186 174 166 166 150 147 145 147 146 144 146 146 149 148 148 143 140 142 141 142 143 142 138 136 137 138 128 123 138 138 139 142 138 134 138 137 140 139 132 131 128 125 126 126 126 133 129 131 128 140 126 125 122 101 111 134 153 145 143 161 171 155 146 129 196 194 203 142 195 158 167 211 215 225 219 229 244
181 222 235 297 158 226 136 183 139 304 320 293 303 309 51 134 171 201 176 188 178 168 149 152 144 149 149 150 150 147 145 144 144 144 145 140 145 143 140 137 128 128 133 142 132 128 135 139 144 135 141 140 134 141 133 128 139 134 136 127 128 129 126 125 129 135 135 136 138 124 107 120 110 105 100 72 85 94 84 75 104 121 107 87 166 211 127 226 174 176 192 200 211 220 224 217 232
222 208 233 220 217 231 123 202 158 277 268 281 295 359 305 208 170 177 179 295 49 354 125 148 151 150 149 147 149 149 146 143 144 141 143 144 142 139 138 136 136 139 150 139 145 138 134 142 133 141 138 138 137 128 133 142 133 132 134 136 135 130 133 134 134 129 124 125 117 98 85 70 76 69 66 73 65 40 40 40 56 84 108 94 62 171 167 189 259 167 190 204 214 213 214 221 221
235 222 198 218 231 236 240 249 223 243 271 284 317 301 262 194 177 148 139 137 59 96 130 141 142 142 148 151 150 145 142 143 140 139 144 141 142 145 138 133 136 144 141 142 143 144 145 139 141 143 136 140 138 138 130 131 133 132 125 130 134 134 142 127 119 107 101 113 109 100 40 6 23 27 42 28 19 3 13 18 10 19 53 90 71 331 191 210 215 231 292 220 214 205 211 221 239
215 234 166 207 204 219 232 239 241 261 269 280 263 253 241 202 152 168 140 137 128 140 137 137 137 141 147 149 144 143 143 141 136 132 125 129 138 138 141 136 146 148 139 149 143 143 145 148 144 139 139 139 134 133 132 132 135 136 136 141 134 150 129 120 107 117 126 123 117 62 45 27 37 3 5 14 328 4 10 2 357 21 6 9 312 281 300 227 225 236 223 257 206 229 212 220 228
220 224 205 209 208 213 215 226 236 247 254 235 219 203 199 155 119 124 110 119 114 140 145 140 139 143 149 148 143 146 143 141 136 136 136 133 134 141 142 147 149 152 147 147 147 146 143 149 143 142 141 137 135 135 131 134 136 136 142 136 126 139 121 132 149 144 138 154 131 79 54 55 42 38 34 319 308 358 328 5 350 17 9 352 330 318 309 277 273 238 240 248 281 237 243 223 226
187 214 217 216 217 219 207 234 225 214 234 206 240 147 141 151 186 149 147 125 133 139 140 143 146 146 146 144 134 140 138 136 134 125 130 135 144 145 144 147 156 145 149 149 149 144 147 149 142 139 138 139 138 132 134 133 133 130 131 132 133 130 133 136 135 132 121 96 80 76 72 97 130 131 116 298 304 353 345 349 14 6 2 15 345 328 324 304 283 286 260 275 258 269 274 271 253
194 209 216 229 234 232 226 226 224 212 202 215 220 135 153 157 222 150 145 141 151 140 142 148 146 146 145 138 141 140 147 137 127 137 139 146 148 151 151 155 151 150 154 151 149 148 148 139 134 134 137 139 135 134 137 140 132 123 119 115 113 110 117 119 104 91 98 95 93 84 103 146 198 204 122 345 357 2 17 29 7 347 23 10 341 352 320 315 299 280 283 267 280 279 264 261 258
169 196 209 214 218 229 216 217 208 208 193 192 171 155 164 176 165 122 142 148 150 142 146 148 143 145 142 139 137 145 139 135 140 147 147 148 144 150 154 153 152 154 151 156 146 142 133 128 105 110 126 135 133 129 125 116 116 119 119 116 104 102 101 98 107 108 101 104 103 122 144 154 187 105 0 359 2 15 32 8 4 352 21 6 336 308 291 288 284 269 240 251 250 253 263 259 260
198 203 243 185 203 219 206 202 198 206 162 188 181 197 168 141 121 162 146 146 148 148 148 146 143 142 140 137 136 132 141 140 147 149 155 146 147 157 152 152 155 160 153 150 141 133 123 104 133 137 141 134 122 118 115 113 110 110 113 110 113 114 105 106 97 95 105 120 128 149 146 107 103 143 261 143 202 208 54 339 6 350 347 327 273 258 279 280 292 303 287 262 260 269 263 262 260
205 199 222 236 197 205 178 190 176 211 145 194 202 233 151 153 146 164 160 145 152 153 152 151 147 142 140 136 134 133 132 141 144 149 143 138 149 161 155 156 161 156 150 140 143 130 114 145 170 142 147 137 126 121 125 133 135 128 126 119 104 106 118 108 96 97 102 72 117 97 60 44 325 338 345 337 346 325 341 335 277 9 320 273 281 320 294 289 282 292 296 290 298 279 274 277 276
207 190 207 218 226 146 142 184 179 191 159 203 211 224 187 162 158 176 169 152 156 150 153 151 146 142 139 137 139 140 141 143 143 152 148 153 160 158 161 158 158 151 141 139 132 129 161 161 154 145 145 138 132 132 131 122 121 119 110 103 113 120 108 90 78 71 64 130 186 120 58 332 296 310 324 329 304 315 322 307 316 318 311 270 267 284 276 290 332 307 302 292 292 285 290 280 277
202 215 189 195 208 155 156 166 186 239 156 192 214 213 126 148 143 170 176 162 159 151 152 145 141 129 118 118 128 139 139 141 152 156 158 159 162 159 159 151 147 139 134 136 136 147 150 146 145 139 138 128 129 129 127 122 114 104 96 89 79 75 71 77 91 97 82 20 11 21 25 340 353 354 332 335 336 321 306 311 336 339 316 302 305 301 285 298 312 300 304 309 296 295 285 290 293
198 202 217 187 199 167 177 136 177 182 175 179 204 212 167 135 141 159 176 171 159 153 145 140 128 125 131 139 136 143 142 151 157 160 157 165 160 160 146 139 132 135 131 136 144 156 142 135 130 129 130 129 126 123 121 118 112 105 93 87 84 76 64 61 66 60 48 37 24 30 11 27 1 9 342 351 331 316 311 296 319 316 306 320 311 300 300 290 286 298 306 304 300 297 292 299 299
183 184 205 174 205 200 159 171 152 185 194 188 194 184 116 135 131 151 168 172 148 115 87 83 109 128 130 127 143 149 154 162 151 153 157 154 149 142 140 145 124 116 138 149 139 140 129 132 130 133 129 127 126 123 120 116 114 114 121 111 98 83 71 61 53 59 54 48 47 41 37 41 24 12 11 354 346 320 302 297 311 328 309 301 307 294 284 283 310 303 303 298 291 294 302 299 301
187 186 191 179 187 183 183 111 146 188 185 186 185 155 136 146 128 127 151 136 101 97 93 53 101 103 97 81 43 73 99 77 52 118 135 144 135 113 87 64 116 164 121 128 125 126 127 125 130 126 123 130 128 129 130 123 110 106 101 89 79 70 67 62 60 61 53 55 50 38 33 30 22 26 18 11 351 342 331 349 347 323 321 307 309 299 295 303 315 305 306 301 305 303 289 297 296
176 184 199 195 187 160 101 139 145 197 191 186 184 130 133 133 133 120 142 127 106 117 143 157 134 123 100 89 85 46 32 38 35 27 13 23 50 46 54 81 95 107 113 125 127 132 127 129 129 126 126 124 123 117 107 103 109 107 90 87 80 78 75 75 70 63 57 54 40 43 40 33 24 26 18 16 3 359 2 0 352 348 340 324 310 304 318 312 318 317 308 305 306 302 293 296 299
184 185 198 182 200 149 142 138 170 168 219 142 171 132 124 90 106 121 139 145 126 141 163 156 133 122 124 113 113 122 116 109 76 69 48 46 35 48 61 87 96 108 110 120 119 122 123 123 114 113 112 102 93 93 96 88 83 86 93 79 78 74 76 72 70 59 54 56 50 43 36 36 33 30 26 21 18 9 3 354 354 360 343 338 318 323 317 323 302 308 321 300 293 300 298 302 310
199 203 197 186 180 114 116 135 158 170 201 168 139 118 105 93 94 80 148 166 143 150 166 160 144 137 136 127 120 126 122 118 93 89 96 67 73 60 104 87 84 110 108 110 111 108 111 112 112 110 103 103 98 98 97 93 88 76 78 86 92 94 74 69 73 72 66 61 54 46 36 33 29 28 15 19 16 14 11 4 0 351 344 340 329 328 333 321 327 324 322 311 309 301 294 291 306
198 205 191 205 142 164 149 145 158 161 205 154 136 115 108 95 87 91 97 131 127 133 162 159 156 154 147 146 152 144 133 120 110 107 101 83 73 60 80 98 111 112 105 99 104 104 101 101 101 99 99 96 97 95 92 87 85 91 90 94 92 91 95 88 81 75 70 66 59 51 48 43 40 37 30 21 18 16 9 2 353 353 358 356 337 328 334 333 342 327 328 324 318 307 308 309 315
203 210 200 196 158 196 175 153 155 146 137 145 129 121 130 150 141 115 102 136 144 145 132 142 154 166 148 140 142 139 142 131 120 115 110 120 122 104 78 80 86 89 91 92 90 87 85 84 86 89 88 87 91 98 101 104 105 101 105 103 101 101 104 108 104 81 69 67 62 50 43 37 33 32 27 24 24 22 19 11 6 4 360 359 354 353 348 344 338 332 330 316 318 317 309 307 307
181 215 236 190 169 166 136 143 148 160 152 170 169 160 182 181 179 150 144 142 159 155 153 153 155 151 152 151 148 145 145 136 128 135 144 132 124 117 106 83 79 92 88 87 92 97 97 91 91 91 89 84 82 83 91 95 106 118 131 137 132 124 106 79 62 64 66 59 56 55 42 33 36 36 30 28 28 26 25 20 19 17 15 10 6 1 359 356 354 346 346 334 323 320 306 305 307
187 184 172 133 158 154 154 164 172 179 186 178 205 215 174 175 193 185 167 168 159 162 165 159 159 157 162 158 152 151 153 135 122 127 129 121 117 110 97 82 58 87 83 80 80 81 83 86 86 83 86 86 78 76 89 100 87 79 69 60 50 58 83 80 79 77 75 72 66 53 51 41 35 37 35 33 32 30 27 23 21 22 23 19 12 14 13 4 354 353 345 351 346 333 327 310 312
193 148 168 138 154 165 176 182 198 199 179 164 205 223 195 178 198 180 169 170 171 173 166 162 171 169 153 159 154 152 158 138 128 126 122 117 113 106 95 81 58 48 63 74 77 78 79 77 74 75 76 76 77 80 76 66 97 84 75 67 66 70 80 91 87 82 77 76 64 53 48 44 40 42 41 39 38 33 31 28 23 23 21 17 10 20 8 5 358 350 356 351 353 351 350 342 328
131 148 167 172 164 176 180 195 207 186 170 174 200 212 215 203 163 167 174 181 188 183 173 172 175 174 164 162 159 156 160 137 128 127 127 128 122 125 128 120 113 91 80 77 77 75 78 79 80 79 77 73 65 59 67 63 55 63 96 100 90 90 100 105 105 100 98 85 71 62 48 49 48 39 32 29 25 30 26 25 20 19 17 10 1 6 1 355 357 352 354 354 353 350 355 348 343
110 153 173 174 176 170 190 207 196 178 199 203 195 197 223 201 159 179 186 202 197 191 183 181 178 175 169 162 156 151 145 133 126 127 135 133 130 125 114 114 114 109 96 88 81 81 81 84 86 84 80 75 73 75 74 73 78 71 63 80 101 107 104 87 64 73 79 78 65 55 53 49 45 43 38 31 24 25 23 21 18 16 13 8 1 357 355 356 355 349 347 344 345 346 342 348 349
128 154 166 164 175 175 197 199 195 188 219 218 191 198 220 211 176 190 188 204 196 186 183 176 171 177 176 171 164 162 153 133 128 131 136 130 130 127 123 118 122 116 108 100 94 94 97 94 96 90 86 85 79 76 71 73 71 73 76 82 83 84 79 79 89 81 67 66 71 66 65 60 52 48 37 33 33 30 29 28 21 18 19 11 8 3 6 359 354 349 348 348 344 351 350 345 338
173 173 184 167 170 171 180 178 197 208 218 217 185 201 207 241 182 198 200 198 191 185 184 183 180 178 176 174 171 169 159 143 139 141 140 136 138 139 129 128 126 118 114 112 112 114 110 104 100 97 92 88 86 81 79 78 79 78 77 77 79 80 81 83 80 75 68 72 69 77 74 67 59 53 44 43 34 25 29 25 20 18 20 13 10 6 5 2 359 356 7 2 5 3 5 354 354
197 185 186 188 174 183 195 184 197 210 228 174 175 188 209 233 212 182 191 191 192 187 189 183 178 178 174 174 167 168 165 155 149 150 146 147 150 148 142 136 132 130 121 119 117 115 112 109 106 101 94 91 87 84 82 78 76 76 79 81 75 71 73 79 83 81 75 76 73 72 72 66 59 54 47 46 38 30 26 25 20 18 14 13 11 9 8 11 3 10 16 12 11 10 8 1 6
195 193 187 190 186 187 200 195 198 204 110 126 196 181 222 195 137 189 187 187 192 186 184 177 180 178 174 171 163 164 161 154 153 154 150 153 152 148 143 139 136 133 129 123 118 116 115 112 106 99 94 92 87 84 79 77 74 76 75 73 78 80 80 80 79 78 74 73 75 76 73 72 68 61 56 46 37 33 35 29 25 22 18 16 17 16 15 19 14 18 25 18 16 14 10 9 11
198 199 197 204 202 188 195 196 196 201 176 150 164 176 210 205 131 81 67 160 183 181 171 156 168 170 167 168 158 157 158 158 159 156 153 152 152 147 142 138 135 129 127 124 124 120 115 110 106 104 99 93 91 87 82 76 75 74 74 76 79 85 85 81 77 75 75 77 73 76 76 76 72 63 58 51 40 42 36 35 31 27 24 22 21 20 17 30 24 27 32 24 23 16 16 15 12
197 203 208 213 216 183 214 213 201 190 152 155 173 203 164 183 99 103 201 140 168 174 157 141 156 166 166 164 162 165 164 163 164 159 154 154 153 149 143 138 132 129 129 128 125 122 118 111 107 101 98 94 91 85 78 78 79 79 79 81 79 77 78 78 76 75 74 74 74 74 76 75 72 70 63 56 49 42 39 38 37 34 29 27 26 25 25 26 25 27 29 26 22 12 13 17 13
179 201 205 204 218 206 104 111 51 65 157 206 167 182 161 108 180 155 176 170 175 178 157 161 166 173 170 169 168 170 169 166 166 162 158 155 150 147 138 132 133 132 132 129 124 121 120 115 109 102 95 92 85 79 84 84 82 81 79 79 79 78 75 74 75 77 77 76 79 79 79 80 77 68 66 58 52 47 42 38 40 37 34 31 30 29 29 26 24 30 27 26 20 11 10 18 11
148 203 192 126 33 303 197 182 136 206 205 189 166 193 175 180 191 153 166 181 179 188 177 176 168 174 179 177 172 170 168 166 163 160 157 155 152 146 141 133 126 129 129 127 124 122 115 107 104 103 96 87 86 89 89 89 89 85 84 80 77 75 75 76 79 80 79 82 86 89 90 88 76 70 67 59 52 49 46 42 42 40 37 34 31 28 27 27 26 32 25 28 18 7 10 14 14
225 200 174 185 182 204 204 238 181 198 210 197 199 204 204 201 177 161 180 186 185 185 184 174 174 180 183 178 175 170 165 164 164 162 158 157 154 152 147 144 139 136 132 128 127 119 109 101 96 94 89 90 94 95 93 89 89 88 84 81 81 80 81 85 85 84 85 86 84 85 86 83 76 68 62 58 55 49 47 45 43 41 36 35 31 29 27 29 27 30 25 26 18 11 12 10 13
246 236 188 201 228 214 199 208 212 199 208 202 185 186 216 201 196 181 182 189 184 179 183 185 181 181 181 175 171 169 167 167 166 161 160 157 153 149 147 145 142 138 137 132 123 113 104 99 100 95 93 100 100 98 96 93 89 89 87 85 80 80 79 80 84 85 88 88 87 89 85 78 73 70 66 61 56 53 47 47 45 41 41 36 34 30 28 28 28 29 24 20 17 13 14 14 9
188 211 191 190 216 8 245 188 221 211 211 212 186 197 223 195 190 182 191 185 183 181 184 186 181 185 180 173 170 169 166 164 163 162 158 154 150 148 146 143 141 140 135 127 119 111 106 110 108 99 103 105 101 99 98 95 91 89 87 84 85 84 84 83 83 84 86 82 82 79 78 77 74 69 67 63 58 52 50 46 47 44 38 36 33 31 27 24 26 25 25 17 14 14 13 16 8
195 197 201 192 194 184 197 199 191 226 226 212 209 222 170 106 11 196 192 184 184 183 179 181 179 181 175 174 171 167 164 164 162 158 155 153 151 150 148 146 144 143 137 125 117 112 112 107 107 106 111 105 107 103 100 99 95 90 88 88 86 85 83 83 84 83 81 81 78 77 78 77 73 66 62 60 57 53 50 49 45 42 39 34 31 30 24 24 21 20 22 18 13 14 14 15 11